EW5030 Weather Reports


time (UTC)temp
C
wind
direction
speed
KPH
gust
KPH
rain 1hr
cm
rain 24hr
cm
rain mn
cm
humidity
%
barometer
mb
20260507055205 8 296 3.2 9.7 0.00 0.43 0.00 94 1012.2
20260507054705 8 319 4.8 9.7 0.00 0.43 0.00 94 1012.2
20260507054205 8 288 4.8 8.0 0.00 0.43 0.00 94 1012.2
20260507053704 8 323 3.2 8.0 0.00 0.43 0.00 95 1012.1
20260507053207 8 293 3.2 8.0 0.00 0.43 0.00 95 1012.1
20260507052706 8 316 1.6 4.8 0.00 0.43 0.00 95 1012.2
20260507030206 7 0.0 3.2 0.00 0.43 0.00 95 1010.9
20260507025206 7 304 1.6 6.4 0.00 0.43 0.00 95 1010.9
20260507024706 8 301 1.6 6.4 0.00 0.46 0.00 95 1010.9
20260507023706 8 315 1.6 4.8 0.00 0.48 0.00 95 1010.9
20260507023205 8 302 1.6 4.8 0.00 0.51 0.00 95 1010.9
20260507021705 8 308 3.2 8.0 0.00 0.53 0.00 95 1010.8
20260507021206 8 316 1.6 6.4 0.00 0.53 0.00 96 1010.7
20260507020705 8 316 3.2 6.4 0.00 0.56 0.00 96 1010.7
20260507020206 8 311 3.2 8.0 0.00 0.58 0.00 96 1010.7
20260507015705 8 317 3.2 8.0 0.00 0.58 0.00 96 1010.7
20260507015205 8 310 3.2 6.4 0.00 0.61 0.00 96 1010.6
20260507014705 8 317 3.2 6.4 0.00 0.61 0.00 96 1010.6
20260507014205 8 305 1.6 6.4 0.00 0.61 0.00 96 1010.6
20260507013706 8 326 1.6 6.4 0.00 0.61 0.00 96 1010.5
20260507013206 8 316 1.6 4.8 0.00 0.61 0.00 96 1010.5
20260507012705 8 302 1.6 4.8 0.00 0.61 0.00 96 1010.5
20260507011705 8 302 1.6 6.4 0.00 0.61 0.00 96 1010.4
20260507011213 8 299 1.6 6.4 0.00 0.61 0.00 96 1010.4
20260507010705 8 310 1.6 6.4 0.00 0.61 0.00 96 1010.3
20260507010206 8 262 1.6 6.4 0.00 0.61 0.00 96 1010.4
20260507005705 8 319 1.6 8.0 0.00 0.64 0.00 96 1010.4
20260507005205 8 319 3.2 8.0 0.00 0.64 0.00 96 1010.3
20260507004705 8 303 3.2 8.0 0.00 0.64 0.00 97 1010.2
20260507004206 8 328 3.2 6.4 0.00 0.64 0.00 97 1010.3
20260507003705 8 333 1.6 6.4 0.00 0.64 0.00 97 1010.2
20260507003205 8 311 1.6 6.4 0.00 0.66 0.00 97 1010.2
20260507002705 8 302 3.2 6.4 0.00 0.66 0.00 97 1010.2
20260507002206 8 303 1.6 6.4 0.00 0.66 0.00 97 1010.2
20260507001705 8 318 1.6 6.4 0.00 0.66 0.00 97 1010.1
20260507001206 8 325 1.6 6.4 0.00 0.69 0.00 97 1010.2
20260507000705 8 316 1.6 6.4 0.00 0.69 0.00 97 1010.2
20260507000205 8 335 1.6 6.4 0.00 0.69 0.00 97 1010.2
20260506234706 8 323 1.6 6.4 0.00 0.71 0.00 97 1010.2
20260506234205 8 336 1.6 6.4 0.00 0.71 0.00 97 1010.2
20260506233705 8 332 1.6 6.4 0.00 0.71 0.00 97 1010.2
20260506233206 8 299 1.6 4.8 0.00 0.71 0.00 97 1010.1
20260506232707 8 325 1.6 8.0 0.00 0.71 0.00 97 1010.1
20260506232206 8 325 1.6 8.0 0.00 0.71 0.00 97 1010.1
20260506231705 8 356 1.6 8.0 0.00 0.71 0.00 97 1010.0
20260506230705 8 323 0.0 1.6 0.00 0.74 0.00 97 1010.1
20260506230205 8 90 0.0 1.6 0.00 0.74 0.00 97 1010.0
20260506225705 8 90 0.0 1.6 0.00 0.76 0.00 97 1010.0
20260506225209 8 90 0.0 4.8 0.00 0.76 0.00 97 1009.9
20260506224705 8 90 0.0 4.8 0.00 0.76 0.00 97 1009.9
20260506224205 8 90 0.0 4.8 0.00 0.79 0.00 97 1009.8
20260506223705 8 309 0.0 6.4 0.00 0.79 0.00 97 1009.8
20260506222710 8 337 0.0 6.4 0.00 0.79 0.00 97 1009.7
20260506222205 8 278 0.0 3.2 0.00 0.79 0.00 97 1009.7
20260506221705 8 301 0.0 4.8 0.00 0.79 0.00 97 1009.6
20260506220705 8 326 0.0 6.4 0.00 0.81 0.00 97 1009.4
20260506220209 8 334 0.0 6.4 0.00 0.81 0.81 97 1009.4
20260506215705 8 324 0.0 4.8 0.00 0.84 0.81 97 1009.3
20260506215207 8 324 1.6 4.8 0.00 0.84 0.81 97 1009.3
20260506214705 8 324 1.6 9.7 0.00 0.84 0.81 97 1009.3
20260506213705 8 329 3.2 9.7 0.00 0.86 0.81 97 1009.2
20260506213206 8 327 3.2 8.0 0.00 0.86 0.81 97 1009.1
20260506212709 8 322 3.2 6.4 0.00 0.86 0.81 97 1009.0
20260506211705 8 337 1.6 8.0 0.00 0.89 0.81 97 1009.0
20260506211205 8 315 1.6 9.7 0.00 0.89 0.81 97 1009.0
20260506210205 8 326 4.8 12.9 0.00 0.89 0.81 97 1009.0
20260506205706 8 350 4.8 12.9 0.00 0.89 0.81 97 1008.9
20260506205207 8 328 4.8 12.9 0.00 0.89 0.81 97 1009.0
20260506204706 8 337 3.2 8.0 0.00 0.89 0.81 97 1009.0
20260506204205 8 319 4.8 8.0 0.00 0.91 0.81 97 1009.0
20260506203206 8 332 3.2 8.0 0.00 0.91 0.81 97 1009.0
20260506202706 8 323 3.2 11.3 0.00 0.91 0.81 97 1009.0
20260506202206 8 332 4.8 11.3 0.00 0.94 0.81 97 1009.0
20260506201705 8 312 4.8 9.7 0.00 0.94 0.81 97 1008.9
20260506201205 8 306 4.8 8.0 0.00 0.94 0.81 97 1008.9
20260506200705 8 324 4.8 11.3 0.00 0.97 0.81 97 1008.7
20260506200205 8 337 3.2 11.3 0.00 0.97 0.81 97 1008.7
20260506195706 8 316 3.2 11.3 0.00 0.97 0.81 97 1008.7
20260506195205 8 317 3.2 8.0 0.00 0.97 0.81 97 1008.6
20260506194705 8 295 3.2 8.0 0.00 0.97 0.81 97 1008.7
20260506194205 8 326 3.2 8.0 0.00 0.99 0.81 97 1008.6
20260506193705 8 337 3.2 8.0 0.00 0.99 0.81 97 1008.5
20260506193209 8 331 3.2 8.0 0.00 0.99 0.81 97 1008.5
20260506192705 8 316 3.2 8.0 0.00 0.99 0.81 97 1008.5
20260506192206 8 309 3.2 8.0 0.00 0.99 0.81 97 1008.4
20260506191706 8 340 3.2 8.0 0.00 1.02 0.81 97 1008.3
20260506191206 8 316 3.2 8.0 0.00 1.02 0.81 97 1008.3
20260506190710 8 297 3.2 9.7 0.00 1.04 0.81 97 1008.3
20260506190205 8 341 3.2 9.7 0.00 1.07 0.81 97 1008.2
20260506184704 8 324 4.8 11.3 0.00 1.09 0.81 96 1008.1
20260506184205 8 318 4.8 11.3 0.00 1.09 0.81 96 1008.0
20260506183705 8 307 4.8 14.5 0.00 1.12 0.81 96 1008.0
20260506183207 8 327 6.4 14.5 0.00 1.12 0.81 96 1008.0
20260506182205 8 297 4.8 11.3 0.00 1.17 0.81 96 1007.9
20260506181707 8 323 4.8 11.3 0.00 1.17 0.81 96 1007.8
20260506180705 8 1 4.8 11.3 0.03 1.19 0.81 96 1007.7
20260506180205 8 304 4.8 11.3 0.03 1.19 0.81 96 1007.7
20260506175705 8 312 4.8 11.3 0.03 1.19 0.81 96 1007.6
20260506175206 8 303 4.8 11.3 0.03 1.19 0.81 96 1007.6
20260506174705 8 328 4.8 12.9 0.03 1.22 0.81 96 1007.5
20260506174206 8 309 6.4 12.9 0.03 1.22 0.81 96 1007.5
20260506173708 8 323 6.4 12.9 0.03 1.22 0.81 96 1007.4
20260506173205 8 347 6.4 16.1 0.03 1.22 0.81 95 1007.4
20260506172706 8 327 6.4 16.1 0.03 1.24 0.81 95 1007.4
20260506172205 8 304 6.4 16.1 0.03 1.24 0.81 95 1007.3
20260506171706 8 318 6.4 16.1 0.03 1.27 0.81 95 1007.3
20260506171206 8 311 4.8 12.9 0.00 1.24 0.79 95 1007.3
20260506170705 8 311 4.8 12.9 0.00 1.24 0.79 95 1007.3
20260506170205 8 310 4.8 12.9 0.00 1.24 0.79 95 1007.3
20260506165705 8 328 4.8 11.3 0.00 1.27 0.79 94 1007.3
20260506165206 8 316 4.8 11.3 0.00 1.27 0.79 94 1007.3
20260506164705 8 328 4.8 12.9 0.00 1.27 0.79 94 1007.2
20260506164205 8 326 6.4 12.9 0.00 1.27 0.79 94 1007.2
20260506163705 8 312 6.4 11.3 0.00 1.27 0.79 94 1007.1
20260506163210 8 319 4.8 11.3 0.00 1.27 0.79 94 1007.1
20260506162705 8 312 4.8 12.9 0.00 1.27 0.79 94 1007.1
20260506162228 8 346 6.4 12.9 0.00 1.27 0.79 94 1007.0
20260506161209 8 347 4.8 12.9 0.00 1.27 0.79 94 1007.0
20260506160724 9 323 4.8 9.7 0.00 1.27 0.79 94 1007.0
20260506160228 8 314 4.8 11.3 0.00 1.27 0.79 94 1007.0
20260506155705 8 306 4.8 12.9 0.00 1.27 0.79 94 1006.9
20260506155205 8 325 4.8 12.9 0.00 1.27 0.79 94 1006.9
20260506154708 8 319 6.4 12.9 0.00 1.27 0.79 94 1006.8
20260506153706 8 28 4.8 11.3 0.00 1.27 0.79 95 1006.9
20260506153205 8 323 4.8 12.9 0.00 1.27 0.79 95 1006.9
20260506152205 8 302 6.4 12.9 0.00 1.27 0.79 95 1006.8
20260506151705 8 335 6.4 16.1 0.00 1.27 0.79 95 1006.8
20260506150706 8 304 6.4 16.1 0.00 1.27 0.79 94 1006.8
20260506150206 8 319 4.8 14.5 0.00 1.27 0.79 95 1006.8
20260506145705 8 326 6.4 14.5 0.00 1.27 0.79 95 1006.7
20260506144705 8 319 6.4 14.5 0.00 1.27 0.79 95 1006.6
20260506144208 8 315 6.4 19.3 0.00 1.27 0.79 95 1006.6
20260506143706 8 342 6.4 19.3 0.00 1.27 0.79 95 1006.6
20260506143205 8 316 8.0 16.1 0.00 1.27 0.79 95 1006.6
20260506142706 8 311 6.4 14.5 0.00 1.27 0.79 95 1006.5
20260506140706 9 330 6.4 14.5 0.03 1.27 0.79 96 1006.4
20260506140205 8 317 8.0 14.5 0.03 1.27 0.79 96 1006.5
20260506135705 8 303 6.4 14.5 0.03 1.27 0.79 96 1006.5
20260506135205 8 344 6.4 12.9 0.05 1.27 0.79 96 1006.4
20260506134205 9 335 4.8 16.1 0.05 1.27 0.79 96 1006.5
20260506133707 9 314 6.4 16.1 0.05 1.27 0.79 96 1006.5
20260506133206 9 315 6.4 16.1 0.05 1.27 0.79 96 1006.4
20260506132205 9 295 4.8 17.7 0.08 1.27 0.79 96 1006.3
20260506131705 9 324 6.4 17.7 0.10 1.27 0.79 95 1006.3
20260506131208 9 322 6.4 14.5 0.13 1.27 0.79 95 1006.3
20260506130705 9 4 8.0 14.5 0.10 1.24 0.79 96 1006.2
20260506130206 9 321 6.4 17.7 0.13 1.24 0.79 96 1006.3
20260506125705 10 308 6.4 17.7 0.13 1.24 0.79 96 1006.2
20260506125205 10 293 6.4 17.7 0.13 1.22 0.76 96 1006.1
20260506124705 10 305 6.4 14.5 0.13 1.22 0.76 96 1006.0
20260506124205 10 343 6.4 14.5 0.15 1.22 0.76 96 1006.0
20260506123705 10 300 6.4 14.5 0.13 1.19 0.74 96 1005.9
20260506122705 10 326 6.4 12.9 0.13 1.19 0.71 96 1005.9
20260506122206 10 340 4.8 14.5 0.10 1.17 0.71 96 1005.8
20260506121205 10 321 6.4 14.5 0.10 1.17 0.69 96 1005.8
20260506120706 10 333 6.4 16.1 0.10 1.17 0.69 97 1005.8
20260506120205 10 308 6.4 16.1 0.08 1.17 0.66 96 1005.8
20260506115706 10 324 6.4 17.7 0.08 1.19 0.66 96 1005.8
20260506115205 10 318 6.4 17.7 0.08 1.17 0.64 96 1005.7
20260506114706 10 322 6.4 14.5 0.08 1.19 0.64 96 1005.7
20260506114206 10 317 4.8 12.9 0.05 1.17 0.61 96 1005.7
20260506113206 10 318 6.4 14.5 0.05 1.17 0.61 96 1005.6
20260506112705 10 354 6.4 14.5 0.05 1.17 0.61 96 1005.6
20260506112205 10 335 6.4 14.5 0.05 1.17 0.61 96 1005.6
20260506110705 10 309 8.0 14.5 0.05 1.17 0.58 97 1005.6
20260506110205 10 335 6.4 14.5 0.05 1.17 0.58 97 1005.5
20260506105706 10 345 6.4 19.3 0.08 1.17 0.58 97 1005.5
20260506105206 10 311 6.4 19.3 0.05 1.17 0.56 97 1005.5
20260506104705 10 351 6.4 19.3 0.05 1.17 0.56 97 1005.5
20260506104205 10 309 6.4 16.1 0.08 1.17 0.56 97 1005.4
20260506103704 10 325 6.4 19.3 0.05 1.14 0.53 97 1005.5
20260506103206 10 329 6.4 19.3 0.08 1.14 0.53 97 1005.4
20260506102706 10 330 6.4 19.3 0.08 1.14 0.53 97 1005.4
20260506102206 10 316 8.0 19.3 0.08 1.14 0.53 97 1005.4
20260506101705 9 314 8.0 19.3 0.08 1.12 0.51 97 1005.3
20260506101205 10 309 6.4 12.9 0.08 1.12 0.51 97 1005.4
20260506100705 10 327 4.8 12.9 0.08 1.12 0.51 97 1005.3
20260506100230 10 345 4.8 12.9 0.08 1.09 0.51 97 1005.2
20260506095706 9 0 4.8 12.9 0.08 1.09 0.51 97 1005.2
20260506095205 9 321 6.4 14.5 0.08 1.09 0.51 97 1005.2
20260506094705 9 325 6.4 14.5 0.05 1.09 0.48 97 1005.2
20260506094206 9 306 6.4 14.5 0.05 1.09 0.48 97 1005.2
20260506093705 9 346 6.4 12.9 0.05 1.09 0.48 97 1005.1
20260506093205 9 311 6.4 12.9 0.05 1.07 0.46 97 1005.1
20260506092705 9 349 4.8 14.5 0.05 1.07 0.46 97 1005.0
20260506092205 9 311 6.4 14.5 0.05 1.07 0.46 97 1005.0
20260506091205 9 312 6.4 14.5 0.05 1.04 0.43 97 1004.9
20260506090705 10 316 4.8 11.3 0.03 1.02 0.43 97 1004.9
20260506090206 10 330 3.2 9.7 0.03 1.02 0.43 97 1004.8
20260506084705 10 316 0.0 3.2 0.03 1.02 0.43 97 1004.8
20260506084206 10 322 0.0 3.2 0.03 1.02 0.43 97 1004.7
20260506083705 10 304 0.0 3.2 0.03 1.02 0.43 97 1004.7
20260506082205 10 328 1.6 4.8 0.00 0.99 0.41 97 1004.6
20260506081705 10 307 0.0 4.8 0.00 0.99 0.41 97 1004.5
20260506081205 10 338 0.0 6.4 0.00 0.99 0.41 97 1004.5
20260506080205 10 331 0.0 6.4 0.03 0.99 0.41 97 1004.4
20260506073227 10 321 1.6 6.4 0.03 0.99 0.41 98 1004.3
20260506072705 10 326 1.6 6.4 0.03 0.99 0.41 97 1004.2
20260506072205 10 307 1.6 6.4 0.03 0.99 0.41 97 1004.2
20260506071705 10 324 3.2 8.0 0.03 0.99 0.41 97 1004.1
20260506071206 10 338 3.2 8.0 0.03 0.99 0.41 97 1004.1
20260506070705 10 354 3.2 8.0 0.03 0.99 0.41 97 1004.1
20260506070205 10 326 3.2 8.0 0.00 0.99 0.38 97 1004.1
20260506062205 9 311 3.2 9.7 0.00 0.99 0.38 97 1003.8
20260506061229 9 323 4.8 6.4 0.00 0.97 0.36 97 1003.9
20260506060705 9 318 3.2 6.4 0.00 0.97 0.36 97 1003.8
20260506060210 9 336 3.2 0.0 0.00 0.97 0.36 97 1003.8